Location: Moscow Pond
(43.6842°N, 73.2366°W)
Time: 06:00:29
(UTC+00:00)

Cosmos 2292 Rocket - Pass Details

Date: 08 November 2025
Orbit: 369 x 1244 km, 83.0° (Epoch: 06 December)

Event Time Altitude Azimuth Distance (km) Brightness Sun altitude
Rises 10:19:47 0° 197° (SSW) 2,631 6.7 -14.5°
Reaches altitude 10° 10:21:42 10° 201° (SSW) 1,851 5.9 -14.1°
Maximum altitude 10:25:44 59° 282° (WNW) 767 3.7 -13.4°
Drops below altitude 10° 10:30:58 10° 2° (N) 2,398 6.5 -12.5°
Sets 10:33:45 0° 6° (N) 3,494 7.3 -12.0°
